Tracking 30692 objects as of 16-Jun-2025
HD Live streaming from Space Station
objects crossing your sky now

TIANXING-1 02

Track TIANXING-1 02 now!
10-day predictions


NORAD ID: 58756
Int'l Code: 2024-008A
Perigee: 353.0 km
Apogee: 372.2 km
Inclination: 95.1 °
Period: 91.7 minutes
Semi major axis: 6733 km
RCS: Unknown
Launch date: January 11, 2024
Source: People's Republic of China (PRC)
Launch site: Jiuquan Satellite Launch Center, China (JSC)
Your satellite tracking list
Your tracking list is empty




NASA's NSSDC Master Catalog

Two Line Element Set (TLE):
1 58756U 24008A   25167.59271502  .00081888  00000-0  64170-3 0  9991
2 58756  95.1195 109.6130 0014215 143.0049 217.2203 15.71194726 81343
Source of the keplerian elements: AFSPC